Wind_Speed
49 49 48 45 42 42 40 37 32 34 37 34 37 43 44 44 43 42 39 37 35 32 34 29 27 27 25 22 22 21 19 18 17 18 18 17 17 17 18 18 19 21 20 21
46 43 44 45 43 41 43 45 34 30 28 35 36 47 47 48 46 46 44 42 39 38 35 31 30 30 28 27 26 23 23 22 23 21 20 19 18 19 20 21 22 23 24 25
42 42 43 43 44 44 44 42 37 33 31 38 38 34 51 51 50 49 48 46 45 40 37 35 33 33 32 29 29 28 27 26 25 24 23 22 22 23 24 25 26 26 26 26
50 47 45 46 46 44 42 42 40 36 35 39 45 42 50 51 52 52 49 49 45 42 40 36 34 34 34 33 32 29 29 28 26 26 25 25 25 25 26 27 28 28 28 29
52 48 48 49 46 45 44 46 49 41 42 43 48 51 38 56 55 55 52 51 47 44 43 39 38 39 38 34 33 32 31 30 29 28 28 28 28 28 27 27 29 29 31 31
57 50 51 49 51 48 47 51 52 50 48 52 43 47 47 53 57 56 53 50 48 46 45 43 41 41 38 36 35 34 34 35 33 32 30 31 30 30 30 30 30 31 33 34
58 57 51 53 53 52 51 53 56 55 53 52 49 52 44 38 60 57 55 53 51 50 50 48 44 43 42 40 39 38 37 37 37 35 34 33 33 33 32 33 33 34 36 37
61 60 59 55 57 54 54 55 57 59 57 51 54 49 44 42 53 61 56 56 53 52 51 49 46 45 44 42 40 41 40 41 40 38 39 36 35 36 36 35 36 37 39 39
57 60 58 59 57 57 57 58 54 61 59 58 57 45 46 41 42 61 55 55 52 52 50 48 45 44 46 44 44 45 44 43 41 40 41 40 38 38 39 38 39 39 41 42
53 53 55 56 57 59 55 55 59 60 60 60 54 47 43 41 35 51 55 49 47 51 50 48 48 46 46 46 46 46 45 45 44 43 42 43 41 40 41 40 42 42 43 45
48 52 55 57 61 61 62 61 60 59 64 65 60 48 45 49 47 46 53 53 49 49 49 49 49 48 48 49 49 48 47 46 46 46 45 44 42 42 42 43 44 45 47 48
46 46 51 53 53 54 58 62 62 59 59 67 63 61 59 53 53 51 51 54 50 50 51 50 50 50 49 49 49 49 50 49 48 47 45 43 42 43 44 45 46 48 48 49
48 50 48 50 53 49 56 62 66 64 60 60 68 57 62 60 55 48 48 53 51 49 49 48 48 53 51 50 49 49 49 48 47 46 45 45 45 45 46 47 48 49 50 49
39 44 47 45 42 39 40 46 50 52 58 55 56 58 62 61 56 53 44 43 42 44 49 48 48 50 50 50 50 51 50 48 48 47 47 47 47 47 48 49 50 52 52 50
41 41 40 41 45 42 43 41 40 51 57 48 52 55 48 47 53 56 53 50 42 40 39 43 47 48 49 51 51 50 49 49 49 49 48 47 48 48 49 51 53 53 51 47
43 41 38 38 39 39 41 41 42 45 48 54 50 48 44 50 52 46 51 46 41 40 46 43 45 45 47 49 49 49 48 49 49 50 50 49 49 51 53 54 52 50 48 48
41 42 41 40 39 41 42 35 38 37 43 42 44 39 42 44 46 43 41 42 41 39 40 44 47 47 48 49 48 48 47 48 49 50 50 50 52 52 52 51 50 49 49 52
40 41 41 40 41 44 33 32 31 30 31 34 39 44 44 42 41 44 49 51 47 46 48 50 51 51 51 49 47 48 48 48 49 50 49 51 50 51 52 51 50 50 54 58
39 43 44 45 44 42 39 36 31 33 27 26 31 35 37 39 43 41 44 50 51 47 50 50 47 46 48 48 49 50 49 50 51 52 52 51 50 51 51 50 55 59 62 65
40 40 45 45 43 43 37 34 38 36 31 29 33 35 35 40 42 33 40 46 47 46 46 49 48 48 47 46 48 49 49 49 50 49 49 50 51 57 63 60 60 63 66 68
40 44 44 42 40 36 37 37 33 34 31 29 28 35 37 40 38 38 39 46 49 51 50 50 51 51 52 54 53 53 56 55 52 54 57 59 58 58 61 62 66 70 66 67
38 39 41 41 41 37 40 39 36 28 25 26 27 34 36 37 35 39 42 44 48 53 52 48 47 47 48 47 47 48 49 51 54 55 57 62 67 68 66 68 66 68 68 72
47 47 46 45 42 41 43 41 37 35 38 38 35 31 37 41 39 40 41 41 42 45 47 48 50 51 50 51 54 55 57 61 66 68 63 59 60 63 67 69 68 74 71 65
44 45 47 45 44 44 45 44 42 38 38 38 38 36 37 42 44 43 42 44 46 48 48 48 49 54 57 61 63 64 63 63 63 62 63 65 67 68 69 69 66 65 65 61
39 39 42 44 45 43 44 43 41 41 39 40 39 41 42 43 45 46 47 47 48 48 47 48 49 49 49 50 52 53 55 57 59 60 60 61 61 62 64 66 64 61 59 57
43 43 43 44 43 42 41 41 40 39 39 39 40 40 39 38 38 39 42 43 44 46 47 48 50 52 53 53 54 55 57 58 60 61 63 63 62 60 60 62 61 56 52 54
Wind_Direction
225 228 231 236 241 246 246 241 245 246 242 256 235 224 224 223 223 222 220 219 214 212 217 218 219 224 219 217 221 220 217 221 227 232 240 248 254 261 266 275 280 283 287 290
226 230 231 232 237 240 241 234 238 246 241 251 250 221 227 227 223 223 220 220 219 217 218 219 222 224 222 221 223 222 225 230 237 242 249 252 257 263 269 274 278 284 285 285
220 225 226 229 236 239 240 228 237 242 239 247 250 255 215 230 227 225 224 222 222 220 220 219 220 224 225 225 228 228 231 231 237 242 246 252 258 265 271 276 278 278 281 282
213 219 224 232 234 239 243 235 232 231 237 244 250 261 225 225 231 230 226 227 226 224 224 226 225 226 229 231 234 237 239 240 242 247 252 258 264 269 273 275 278 281 283 285
215 219 222 227 233 236 241 236 228 231 237 245 247 258 247 222 226 231 228 229 229 228 229 227 227 226 229 232 237 242 246 249 251 254 259 264 270 273 274 276 278 281 283 283
216 216 215 216 219 222 235 233 236 240 240 246 254 258 257 234 226 231 232 231 232 232 233 232 230 231 233 235 240 241 244 250 254 258 262 266 270 272 273 274 277 280 282 285
215 216 214 216 219 220 223 233 234 238 240 255 252 253 260 255 235 230 231 231 230 231 230 232 231 232 235 236 239 241 244 250 257 261 263 267 270 273 275 277 279 280 282 283
225 221 213 214 216 223 223 228 233 238 243 250 255 256 260 263 245 231 232 234 234 235 235 236 236 235 237 239 242 245 246 250 255 262 266 268 272 274 274 276 278 280 282 284
226 225 226 230 224 222 222 223 230 236 241 246 256 254 255 264 253 237 231 235 238 239 238 241 242 243 243 242 243 245 247 250 254 259 264 269 272 275 276 278 278 279 281 283
229 232 230 226 229 230 230 229 236 238 240 246 253 255 254 258 261 247 238 236 240 243 244 243 245 246 247 246 248 248 249 252 256 259 262 266 270 274 276 278 279 280 281 282
232 231 229 230 228 228 229 231 231 238 239 243 249 256 257 263 263 253 243 238 240 242 244 242 244 245 246 248 250 251 254 255 258 260 262 266 270 272 275 276 277 279 280 281
238 237 238 235 235 238 241 240 238 247 244 243 246 252 256 260 262 253 246 243 245 244 243 243 245 247 249 251 253 255 257 259 261 263 265 268 270 271 272 274 276 276 277 278
235 235 234 239 241 240 237 237 243 246 251 246 248 249 248 256 261 261 251 244 243 243 243 245 244 251 252 252 254 256 258 259 261 263 265 267 268 270 272 273 274 274 275 275
236 238 237 240 246 249 248 252 250 252 251 250 247 250 255 252 252 252 246 241 246 247 244 243 244 244 250 251 252 255 257 259 261 262 265 267 268 269 270 271 272 272 273 274
237 239 241 237 240 243 243 238 239 245 251 254 257 253 258 257 256 250 248 246 246 242 238 235 239 244 246 250 251 253 257 260 261 262 263 264 265 266 267 268 269 270 272 276
233 235 233 236 237 241 243 242 247 250 253 255 255 257 260 254 253 254 252 245 241 240 238 244 242 242 244 244 246 249 252 256 257 259 262 264 265 266 267 267 267 271 276 277
233 238 235 238 246 246 243 246 246 249 252 261 256 256 253 256 258 256 240 236 229 227 230 234 238 241 242 244 246 249 251 253 256 258 258 259 259 261 264 268 270 273 276 280
227 233 240 242 246 248 246 248 255 261 251 249 252 245 248 254 254 239 237 236 235 226 227 229 233 240 244 247 250 250 251 253 255 258 259 260 262 264 266 269 270 274 277 285
230 229 233 238 242 246 247 247 247 253 247 254 248 251 257 259 258 251 243 245 240 235 235 238 243 246 249 251 252 254 255 256 258 259 260 262 263 266 267 268 272 276 282 285
226 231 237 244 247 248 245 253 254 250 244 242 251 255 261 260 261 263 244 240 242 242 241 243 244 244 247 250 253 255 257 259 260 263 263 265 267 268 269 273 275 281 284 286
229 231 236 242 244 249 245 247 250 255 260 254 256 257 257 260 263 260 248 244 243 243 243 244 245 244 244 246 250 253 255 258 262 263 264 266 267 268 271 274 280 282 280 282
233 232 238 241 242 245 244 246 255 262 259 263 254 246 256 258 259 258 258 250 247 247 248 250 252 251 251 252 254 255 257 257 258 261 262 263 265 268 272 276 277 279 281 279
229 235 240 240 246 254 259 260 257 256 253 255 257 244 239 248 256 268 268 262 255 255 255 256 257 256 255 257 257 258 258 260 262 266 267 269 270 272 274 277 275 274 279 281
230 235 239 241 239 244 250 256 257 252 251 253 254 248 248 250 253 256 258 261 261 257 256 257 257 258 258 258 258 260 263 266 267 268 268 268 268 267 267 272 276 278 282 283
234 235 234 237 241 241 245 253 256 257 254 254 255 256 255 254 254 253 257 261 262 263 264 263 262 263 264 264 266 266 265 264 265 267 268 268 269 271 273 275 276 276 276 279
237 236 240 240 240 242 242 245 250 250 255 253 254 255 258 258 260 261 258 258 260 261 262 262 262 262 264 265 265 264 263 264 265 266 267 267 268 268 267 266 270 275 279 276
Height
5742 5749 5759 5768 5773 5775 5780 5781 5786 5791 5792 5799 5804 5813 5818 5822 5827 5831 5835 5841 5842 5844 5843 5849 5852 5856 5857 5859 5862 5864 5864 5867 5869 5869 5870 5871 5871 5872 5872 5873 5873 5872 5870 5869
5736 5745 5752 5758 5763 5767 5771 5778 5781 5785 5784 5792 5797 5804 5811 5813 5820 5825 5829 5832 5836 5836 5840 5844 5847 5851 5853 5855 5858 5860 5861 5862 5863 5863 5865 5865 5867 5867 5868 5868 5867 5867 5866 5864
5730 5740 5744 5749 5756 5762 5766 5773 5774 5777 5779 5782 5789 5791 5799 5807 5813 5817 5822 5825 5828 5833 5836 5839 5841 5846 5846 5850 5853 5855 5857 5857 5859 5860 5860 5860 5861 5862 5863 5863 5864 5862 5860 5859
5719 5728 5735 5741 5749 5757 5760 5767 5768 5770 5773 5774 5780 5782 5791 5797 5806 5811 5815 5820 5825 5829 5832 5835 5838 5842 5842 5844 5847 5849 5851 5852 5853 5855 5857 5856 5857 5857 5857 5857 5857 5857 5855 5853
5710 5718 5727 5733 5745 5749 5757 5759 5759 5762 5764 5767 5771 5774 5789 5788 5793 5802 5808 5814 5819 5823 5827 5829 5832 5834 5836 5838 5841 5841 5844 5845 5846 5846 5850 5850 5850 5851 5849 5849 5849 5849 5848 5845
5701 5711 5718 5727 5732 5738 5748 5749 5752 5754 5755 5755 5770 5770 5773 5784 5787 5794 5802 5808 5815 5817 5821 5824 5825 5828 5831 5833 5835 5836 5838 5840 5840 5841 5842 5843 5843 5843 5843 5842 5842 5841 5840 5838
5696 5701 5710 5717 5722 5725 5732 5741 5741 5740 5742 5755 5757 5756 5770 5778 5779 5784 5792 5799 5804 5807 5810 5815 5817 5820 5823 5826 5828 5830 5832 5833 5834 5834 5835 5836 5836 5835 5834 5834 5834 5833 5832 5831
5689 5693 5699 5707 5711 5720 5724 5727 5735 5738 5741 5747 5744 5751 5761 5766 5770 5777 5782 5790 5794 5799 5803 5808 5812 5813 5816 5819 5821 5824 5825 5825 5826 5826 5828 5827 5828 5828 5828 5827 5826 5826 5825 5822
5679 5683 5691 5698 5702 5707 5710 5712 5728 5727 5734 5736 5738 5748 5751 5754 5763 5767 5774 5781 5788 5792 5796 5801 5804 5806 5809 5810 5812 5814 5816 5817 5818 5818 5819 5819 5820 5821 5820 5819 5818 5816 5814 5812
5671 5676 5681 5686 5691 5693 5703 5713 5714 5717 5723 5727 5732 5737 5744 5747 5753 5759 5766 5773 5779 5784 5788 5792 5795 5797 5799 5801 5802 5805 5806 5808 5809 5810 5811 5811 5810 5811 5810 5810 5809 5807 5804 5802
5661 5667 5672 5674 5679 5688 5694 5698 5703 5709 5713 5717 5724 5729 5737 5739 5745 5749 5755 5763 5768 5772 5776 5780 5783 5785 5787 5789 5792 5794 5797 5798 5799 5800 5801 5801 5802 5801 5801 5800 5799 5797 5795 5792
5655 5657 5662 5669 5672 5678 5683 5690 5694 5696 5707 5709 5713 5722 5725 5728 5733 5740 5744 5750 5757 5761 5765 5768 5770 5774 5776 5779 5781 5783 5785 5786 5788 5790 5791 5790 5791 5791 5790 5789 5788 5786 5784 5781
5647 5649 5655 5659 5664 5669 5673 5679 5685 5690 5692 5696 5701 5715 5718 5722 5725 5728 5734 5738 5742 5748 5752 5756 5759 5764 5766 5768 5770 5772 5774 5775 5777 5779 5779 5780 5780 5779 5779 5778 5776 5774 5772 5770
5636 5640 5646 5654 5664 5663 5668 5672 5674 5677 5677 5690 5691 5706 5709 5714 5717 5720 5722 5726 5731 5735 5739 5742 5747 5751 5755 5756 5758 5761 5763 5764 5765 5767 5768 5768 5768 5767 5767 5766 5765 5763 5761 5759
5627 5634 5640 5647 5650 5652 5656 5659 5662 5662 5677 5673 5701 5690 5700 5703 5706 5708 5707 5712 5717 5724 5726 5728 5732 5737 5741 5744 5746 5748 5751 5753 5754 5755 5755 5756 5756 5756 5755 5753 5752 5750 5749 5747
5619 5626 5632 5637 5641 5644 5647 5650 5654 5660 5669 5672 5684 5682 5689 5689 5690 5695 5698 5699 5704 5709 5713 5719 5722 5724 5728 5730 5733 5735 5737 5740 5743 5743 5743 5744 5743 5743 5742 5740 5739 5739 5738 5735
5614 5619 5626 5631 5634 5635 5637 5651 5650 5655 5657 5667 5664 5684 5671 5678 5681 5687 5687 5687 5692 5698 5703 5707 5709 5711 5714 5717 5720 5724 5725 5728 5730 5731 5730 5730 5729 5729 5729 5728 5728 5727 5725 5723
5607 5613 5617 5622 5625 5625 5641 5641 5644 5644 5648 5653 5661 5665 5660 5666 5668 5668 5671 5676 5682 5688 5691 5692 5695 5699 5703 5706 5710 5710 5713 5716 5718 5719 5719 5718 5718 5718 5718 5717 5716 5714 5712 5710
5599 5603 5607 5611 5615 5623 5629 5634 5637 5637 5644 5649 5651 5651 5651 5651 5652 5658 5664 5669 5673 5676 5680 5682 5685 5690 5693 5696 5698 5700 5702 5704 5706 5707 5707 5706 5705 5705 5706 5704 5702 5701 5698 5695
5591 5596 5601 5603 5607 5612 5625 5625 5626 5629 5637 5640 5639 5640 5641 5641 5641 5654 5655 5656 5658 5662 5667 5670 5674 5678 5683 5685 5686 5687 5689 5692 5694 5695 5693 5692 5693 5692 5691 5690 5689 5686 5683 5680
5584 5587 5591 5595 5599 5606 5611 5616 5618 5624 5637 5630 5629 5630 5632 5632 5636 5640 5645 5645 5648 5651 5654 5658 5662 5666 5668 5671 5672 5674 5676 5679 5680 5679 5679 5678 5678 5677 5676 5675 5673 5670 5667 5665
5575 5580 5585 5589 5593 5597 5600 5605 5612 5618 5617 5616 5620 5622 5623 5624 5625 5628 5630 5635 5638 5639 5642 5645 5649 5653 5656 5658 5660 5661 5663 5664 5664 5664 5663 5663 5663 5661 5660 5659 5657 5655 5651 5647
5567 5572 5577 5583 5588 5592 5594 5598 5602 5605 5606 5607 5609 5612 5613 5614 5617 5618 5620 5622 5627 5630 5631 5633 5637 5639 5642 5644 5645 5647 5648 5648 5648 5647 5647 5647 5646 5645 5645 5643 5640 5637 5634 5632
5558 5564 5567 5572 5576 5580 5581 5586 5589 5593 5597 5598 5599 5601 5603 5604 5605 5607 5610 5611 5613 5616 5619 5621 5622 5625 5626 5627 5629 5630 5632 5631 5631 5630 5631 5631 5630 5628 5626 5625 5623 5621 5619 5618
5549 5553 5557 5561 5564 5569 5572 5574 5578 5581 5584 5587 5589 5590 5591 5592 5593 5595 5597 5600 5601 5602 5605 5607 5608 5609 5611 5612 5613 5614 5615 5613 5613 5614 5614 5613 5612 5612 5611 5609 5608 5606 5605 5604
5538 5543 5547 5551 5554 5557 5561 5563 5564 5568 5570 5573 5576 5578 5580 5582 5583 5584 5585 5587 5588 5590 5591 5593 5594 5595 5596 5597 5597 5598 5598 5597 5598 5598 5597 5597 5597 5596 5595 5594 5593 5593 5591 5587